Location: Bodest
(46.3000°N, 22.5667°E)
Time: 01:19:09
(UTC+00:00)

HJ-1C - Pass Details

Date: 16 October 2021
Orbit: 423 x 433 km, 97.1° (Epoch: 02 December)

Event Time Altitude Azimuth Distance (km) Brightness Sun altitude
Exits shadow 17:16:35 22° 160° (SSE) 987 4.9 -17.2°
Maximum altitude 17:18:34 78° 76° (ENE) 440 3.1 -17.5°
Drops below altitude 10° 17:21:49 10° 350° (N) 1,526 6.3 -18.1°
Sets 17:23:50 0° 350° (N) 2,399 7.3 -18.4°
